sat.trackr.live / text

‹ back to catalog

ONEWEB-0199

NORAD 48234 · 2021-031AA

PAYLOAD ACTIVE UNKNOWN

§ Identity

Operator
Country
UK
Launch date
2021-04-25
Launch site
VOSTO
Launch vehicle
Mass (kg)
RCS (m²)

Purposes: comms

External: N2YO · Heavens-Above · Gunter

§ Orbital elements

Epoch: 2026-09-19T19:10:37.474176Z

Period
109.55 min
Inclination
87.8905°
Eccentricity
0.0002144
Mean motion
13.14502777 rev/d
Perigee alt
1,204.2 km
Apogee alt
1,207.4 km
Semi-major
7,583.9 km
B*
1.2757e-4
RAAN
270.8303°
Arg perigee
87.4207°
Mean anomaly
272.7169°
Rev number
26,069

§ Raw data

ONEWEB-01991 48234U 21031AA  26262.79904484  .00000060  00000+0  12757-3 0  99912 48234  87.8905 270.8303 0002144  87.4207 272.7169 13.14502777260696

JSON: /api/v1/satellites/48234 · /tle

For live sub-satellite position, see the globe view (requires WebGL).

§ Visibility from observer

Set your observer location to see the next 7 days of passes ≥ 10°. The values pass through the URL so the page stays shareable.

No JS? Fill the form by hand. The geolocation button needs JavaScript.